Weather in Blagodarovka

Russia / Omsk Oblast     54°04′20″N   73°10′49″E
temp.,
°C
wind,
m/s
gust,
m/s
humid.,
%
clouds,
%
prec.,
mm/h
press.,
hPa
HPBL,
m
21 january, fri
fri2100:00−20sse3397100 0.0 103233
03:00−22sse339831 0.0 103229
06:00−19sse3497100 0.0 103148
09:00−17se3596100 0.0 103063
12:00−14se3793100 0.0 1030157
15:00−12se3890100 0.0 1029201
18:00−14ese3692100 0.0 102992
21:00−14se3691100 0.0 103096
22 january, sat
sat2200:00−17se369370 0.0 103064
03:00−18se359436 0.0 103058
06:00−21se22989 0.0 103131
09:00−22se22995 0.0 103229
12:00−16se35935 0.0 103394
15:00−15ese229313 0.0 103216
18:00−20e339847 0.0 103413
21:00−22ese22995 0.0 103511
23 january, sun
sun2300:00−23e221006 0.0 103512
03:00−24ese221008 0.0 10369
06:00−24ene1110010 0.0 10369
09:00−25ene2210041 0.0 10389
12:00−18ese11955 0.0 103833
15:00−16nw11935 0.0 103813
18:00−21n11985 0.0 10399
21:00−22nnw229827 0.0 10409
24 january, mon
mon2400:00−23nnw119839 0.0 10419
03:00−23nnw229995 0.0 104110
06:00−22nnw2210088 0.0 104117
09:00−23n2210095 0.0 104211
12:00−18n119677 0.0 104337
15:00−15nw00966 0.0 104210
18:00−20nne0010019 0.0 10439
21:00−22sw1110054 0.0 10439
25 january, tue
tue2500:00−23sw1210062 0.0 104310
03:00−24ssw2210092 0.0 104112
06:00−23ssw2210094 0.0 104028
09:00−20ssw3499100 0.0 103969
12:00−17ssw3697100 0.0 1038139
15:00−15s3696100 0.0 1036158
18:00−16s3795100 0.0 1035104
21:00−15s3793100 0.0 1033122